JL1CBB-13 Weather Reports


Display with metric or nautical units.
time (UTC)temp
F
wind
direction
speed
MPH
gust
MPH
rain 1hr
in
rain 24hr
in
rain mn
in
humidity
%
barometer
mb
20260505102154 62 200 5.0 6.0 0.00 0.00 0.00 55 1025.0
20260505101154 63 129 5.0 6.0 0.00 0.00 0.00 53 1024.0
20260505100154 63 135 3.0 5.0 0.00 0.00 0.00 52 1024.0
20260505095155 63 215 2.0 5.0 0.00 0.00 0.00 50 1024.0
20260505094155 63 208 5.0 6.0 0.00 0.00 0.00 47 1023.0
20260505093155 64 134 3.0 8.0 0.00 0.00 0.00 44 1023.0
20260505092154 64 182 3.0 7.0 0.00 0.00 0.00 43 1023.0
20260505091154 64 137 5.0 6.0 0.00 0.00 0.00 44 1023.0
20260505090154 65 226 6.0 7.0 0.00 0.00 0.00 43 1023.0
20260505085154 65 169 6.0 8.0 0.00 0.00 0.00 44 1023.0
20260505084154 65 246 5.0 7.0 0.00 0.00 0.00 46 1023.0
20260505083154 66 259 6.0 9.0 0.00 0.00 0.00 47 1023.0
20260505082156 67 111 3.0 5.0 0.00 0.00 0.00 47 1023.0
20260505081156 67 191 5.0 10.0 0.00 0.00 0.00 46 1023.0
20260505080155 68 170 6.0 8.0 0.00 0.00 0.00 46 1023.0
20260505075155 68 205 6.0 8.0 0.00 0.00 0.00 44 1023.0
20260505074155 69 207 6.0 9.0 0.00 0.00 0.00 43 1023.0
20260505073155 70 209 5.0 6.0 0.00 0.00 0.00 41 1023.0
20260505072155 70 182 6.0 8.0 0.00 0.00 0.00 40 1022.0
20260505071155 71 125 3.0 6.0 0.00 0.00 0.00 38 1022.0
20260505070154 72 270 6.0 9.0 0.00 0.00 0.00 35 1022.0
20260505065154 72 210 3.0 6.0 0.00 0.00 0.00 31 1022.0
20260505064154 73 112 5.0 6.0 0.00 0.00 0.00 24 1022.0
20260505063154 74 164 3.0 3.0 0.00 0.00 0.00 22 1022.0
20260505062154 74 192 3.0 7.0 0.00 0.00 0.00 19 1022.0
20260505061154 75 22 6.0 6.0 0.00 0.00 0.00 11 1021.0
20260505060156 76 167 3.0 5.0 0.00 0.00 0.00 11 1021.0
20260505055155 77 172 3.0 6.0 0.00 0.00 0.00 9 1022.0
20260505054155 79 195 5.0 5.0 0.00 0.00 0.00 9 1021.0
20260505053155 81 194 3.0 6.0 0.00 0.00 0.00 9 1021.0
20260505052155 83 209 1.0 2.0 0.00 0.00 0.00 10 1022.0
20260505051155 83 239 0.0 1.0 0.00 0.00 0.00 12 1022.0
20260505050155 82 192 2.0 3.0 0.00 0.00 0.00 11 1022.0
20260505041154 81 185 3.0 6.0 0.00 0.00 0.00 14 1022.0
20260505040154 81 229 3.0 3.0 0.00 0.00 0.00 14 1022.0
20260505035154 84 247 3.0 3.0 0.00 0.00 0.00 12 1021.0
20260505034154 85 258 1.0 2.0 0.00 0.00 0.00 8 1022.0
20260505033155 84 252 2.0 3.0 0.00 0.00 0.00 7 1022.0
20260505032155 82 262 2.0 2.0 0.00 0.00 0.00 8 1021.0
20260505031155 83 1 2.0 5.0 0.00 0.00 0.00 7 1021.0
20260505030155 82 301 3.0 8.0 0.00 0.00 0.00 8 1021.0
20260505025155 82 250 1.0 2.0 0.00 0.00 0.00 9 1022.0
20260505024155 81 252 3.0 3.0 0.00 0.00 0.00 10 1022.0
20260505023155 81 154 3.0 6.0 0.00 0.00 0.00 11 1022.0
20260505022154 81 252 1.0 2.0 0.00 0.00 0.00 12 1022.0
20260505021154 80 316 2.0 6.0 0.00 0.00 0.00 12 1022.0
20260505020154 78 15 1.0 3.0 0.00 0.00 0.00 13 1022.0
20260505015154 77 32 2.0 5.0 0.00 0.00 0.00 13 1021.0
20260505014154 76 38 3.0 6.0 0.00 0.00 0.00 13 1021.0
20260505013154 76 298 5.0 6.0 0.00 0.00 0.00 14 1021.0
20260505012155 76 309 2.0 3.0 0.00 0.00 0.00 15 1021.0
20260505011155 74 32 2.0 2.0 0.00 0.00 0.00 17 1021.0
20260505010154 74 45 2.0 2.0 0.00 0.00 0.00 17 1021.0
20260505005154 74 38 2.0 6.0 0.00 0.00 0.00 18 1021.0
20260505004154 75 147 3.0 3.0 0.00 0.00 0.00 19 1021.0
20260505003153 70 68 3.0 5.0 0.00 0.00 0.00 26 1021.0
20260505002154 70 68 3.0 5.0 0.00 0.00 0.00 26 1021.0
20260505001154 70 68 3.0 5.0 0.00 0.00 0.00 26 1021.0
20260505000154 70 68 3.0 5.0 0.00 0.00 0.00 26 1021.0
20260504235153 70 68 3.0 5.0 0.00 0.00 0.00 26 1021.0
20260504234154 70 68 3.0 5.0 0.00 0.00 0.00 26 1021.0
20260504233153 70 68 3.0 5.0 0.00 0.00 0.00 26 1021.0
20260504232153 69 64 2.0 2.0 0.00 0.00 0.00 27 1021.0
20260504231153 68 38 3.0 3.0 0.00 0.00 0.00 26 1022.0
20260504230535 68 253 2.0 3.0 0.00 0.00 0.00 28 1022.0
20260504225534 67 152 1.0 1.0 0.00 0.00 0.00 30 1021.0
20260504224534 65 33 1.0 2.0 0.00 0.00 0.00 31 1021.0
20260504223534 64 34 3.0 6.0 0.00 0.00 0.00 32 1021.0
20260504222534 63 32 3.0 5.0 0.00 0.00 0.00 34 1021.0
20260504221534 62 52 3.0 6.0 0.00 0.00 0.00 36 1021.0
20260504220534 60 3 2.0 5.0 0.00 0.00 0.00 39 1021.0
20260504215534 59 40 2.0 5.0 0.00 0.00 0.00 40 1021.0
20260504214534 59 26 1.0 3.0 0.00 0.00 0.00 41 1021.0
20260504213534 58 34 1.0 5.0 0.00 0.00 0.00 41 1021.0
20260504212536 58 45 3.0 6.0 0.00 0.00 0.00 41 1020.0
20260504211536 58 19 2.0 3.0 0.00 0.00 0.00 42 1020.0
20260504210536 58 85 2.0 3.0 0.00 0.00 0.00 42 1021.0
20260504205535 58 337 5.0 6.0 0.00 0.00 0.00 42 1021.0
20260504204535 57 80 0.0 2.0 0.00 0.00 0.00 42 1021.0
20260504203535 57 41 3.0 5.0 0.00 0.00 0.00 42 1020.0
20260504202535 57 7 2.0 6.0 0.00 0.00 0.00 43 1019.0
20260504201535 57 14 3.0 6.0 0.00 0.04 0.00 43 1019.0
20260504200535 57 309 2.0 3.0 0.00 0.08 0.00 44 1018.0
20260504195534 57 57 2.0 3.0 0.00 0.08 0.00 43 1019.0
20260504194534 57 61 5.0 9.0 0.00 0.08 0.00 43 1019.0
20260504193534 57 151 3.0 5.0 0.00 0.08 0.00 44 1018.0
20260504192534 56 288 1.0 1.0 0.00 0.08 0.00 45 1018.0
20260504191534 56 55 2.0 5.0 0.00 0.12 0.00 45 1018.0
20260504190534 56 35 3.0 5.0 0.00 0.12 0.00 46 1017.0
20260504185534 56 45 1.0 2.0 0.00 0.12 0.00 46 1017.0
20260504184534 56 30 2.0 6.0 0.00 0.12 0.00 46 1017.0
20260504183534 56 47 3.0 6.0 0.00 0.12 0.00 46 1017.0
20260504182534 56 42 2.0 3.0 0.00 0.12 0.00 46 1017.0
20260504181534 56 56 3.0 7.0 0.00 0.12 0.00 47 1017.0
20260504180536 57 50 2.0 5.0 0.00 0.12 0.00 47 1016.0
20260504175535 57 32 2.0 7.0 0.00 0.12 0.00 46 1015.0
20260504174535 57 18 2.0 3.0 0.00 0.12 0.00 46 1015.0
20260504173535 57 14 5.0 8.0 0.00 0.12 0.00 46 1015.0
20260504172535 57 343 3.0 6.0 0.00 0.12 0.00 46 1015.0
20260504171535 57 63 2.0 2.0 0.00 0.12 0.00 46 1015.0
20260504170535 57 1 3.0 5.0 0.00 0.12 0.00 46 1015.0
20260504150534 61 65 6.0 8.0 0.00 0.12 0.00 47 1011.0
20260504140535 63 41 3.0 3.0 0.00 0.12 0.12 47 1010.0
20260504130535 66 338 3.0 3.0 0.00 0.12 0.12 46 1009.0
20260504110534 72 131 3.0 6.0 0.00 0.12 0.12 46 1003.0